Time,TemperatureF,DewpointF,PressureIn,WindDirection,WindDirectionDegrees,WindSpeedMPH,WindSpeedGustMPH,Humidity,HourlyPrecipIn,Conditions,Clouds,dailyrainin,SolarRadiationWatts/m^2,SoftwareType,DateUTC
2013-02-25 00:01:00,25.0,15.0,30.20,SSW,199,10.0,13.0,66,-99.99,,,-99.99,0.000000,,2013-02-25 07:01:00,
2013-02-25 00:11:00,25.0,15.0,30.21,SSW,201,10.0,16.0,66,-99.99,,,-99.99,-0.100000,,2013-02-25 07:11:00,
2013-02-25 00:21:00,25.0,15.0,30.20,SSW,204,9.0,13.0,66,-99.99,,,-99.99,0.000000,,2013-02-25 07:21:00,
2013-02-25 00:31:00,25.0,15.0,30.20,SSW,201,10.0,13.0,66,-99.99,,,-99.99,0.000000,,2013-02-25 07:31:00,
2013-02-25 00:41:00,25.0,15.0,30.20,SSW,200,9.0,13.0,66,-99.99,,,-99.99,-0.100000,,2013-02-25 07:41:00,
2013-02-25 00:51:00,25.0,15.0,30.20,SSW,198,9.0,12.0,65,-99.99,,,-99.99,0.000000,,2013-02-25 07:51:00,
2013-02-25 01:01:00,24.0,15.0,30.20,SSW,204,9.0,12.0,66,-99.99,,,-99.99,-0.200000,,2013-02-25 08:01:00,
2013-02-25 01:11:00,24.0,15.0,30.20,SSW,202,8.0,13.0,66,-99.99,,,-99.99,0.100000,,2013-02-25 08:11:00,
2013-02-25 01:21:00,24.0,15.0,30.20,SSW,204,9.0,12.0,65,-99.99,,,-99.99,0.000000,,2013-02-25 08:21:00,
2013-02-25 01:31:00,24.0,15.0,30.20,SSW,203,7.0,9.0,66,-99.99,,,-99.99,-0.200000,,2013-02-25 08:31:00,
2013-02-25 01:41:00,24.0,15.0,30.20,SSW,202,8.0,11.0,66,-99.99,,,-99.99,-0.100000,,2013-02-25 08:41:00,
2013-02-25 01:51:00,25.0,15.0,30.20,SSW,207,8.0,11.0,65,-99.99,,,-99.99,0.000000,,2013-02-25 08:51:00,
2013-02-25 02:01:00,22.0,14.0,30.20,NW,320,5.0,7.0,67,-99.99,,,-99.99,-0.200000,,2013-02-25 09:01:00,
2013-02-25 02:12:00,18.0,12.0,30.20,NW,322,6.0,7.0,76,-99.99,,,-99.99,-0.100000,,2013-02-25 09:12:00,
2013-02-25 02:21:00,17.0,11.0,30.20,NW,314,4.0,6.0,78,-99.99,,,-99.99,0.100000,,2013-02-25 09:21:00,
2013-02-25 02:31:00,15.0,11.0,30.20,NNW,336,3.0,4.0,81,-99.99,,,-99.99,-0.100000,,2013-02-25 09:31:00,
2013-02-25 02:41:00,15.0,10.0,30.21,North,350,2.0,3.0,83,-99.99,,,-99.99,-0.100000,,2013-02-25 09:41:00,
2013-02-25 02:51:00,14.0,11.0,30.21,NNW,340,2.0,2.0,85,-99.99,,,-99.99,-0.100000,,2013-02-25 09:51:00,
2013-02-25 03:01:00,14.0,10.0,30.21,ESE,103,3.0,3.0,84,-99.99,,,-99.99,-0.100000,,2013-02-25 10:01:00,
2013-02-25 03:11:00,13.0,9.0,30.21,SW,233,2.0,3.0,84,-99.99,,,-99.99,0.000000,,2013-02-25 10:11:00,
2013-02-25 03:21:00,12.0,8.0,30.21,SW,217,2.0,3.0,86,-99.99,,,-99.99,0.000000,,2013-02-25 10:21:00,
2013-02-25 03:31:00,13.0,10.0,30.21,SSW,195,2.0,2.0,87,-99.99,,,-99.99,-0.200000,,2013-02-25 10:31:00,
2013-02-25 03:41:00,11.0,8.0,30.20,SSW,198,2.0,2.0,86,-99.99,,,-99.99,-0.100000,,2013-02-25 10:41:00,
2013-02-25 03:52:00,12.0,9.0,30.20,South,170,3.0,4.0,88,-99.99,,,-99.99,-0.100000,,2013-02-25 10:52:00,
2013-02-25 04:01:00,12.0,9.0,30.20,SSW,192,3.0,3.0,87,-99.99,,,-99.99,0.100000,,2013-02-25 11:01:00,
2013-02-25 04:11:00,12.0,9.0,30.20,SSW,213,2.0,3.0,87,-99.99,,,-99.99,0.000000,,2013-02-25 11:11:00,
2013-02-25 04:21:00,12.0,9.0,30.20,SSW,213,2.0,2.0,87,-99.99,,,-99.99,-0.100000,,2013-02-25 11:21:00,
2013-02-25 04:31:00,12.0,9.0,30.20,WSW,245,2.0,3.0,87,-99.99,,,-99.99,-0.100000,,2013-02-25 11:31:00,
2013-02-25 04:41:00,13.0,10.0,30.19,West,281,3.0,4.0,88,-99.99,,,-99.99,0.000000,,2013-02-25 11:41:00,
2013-02-25 04:52:00,13.0,10.0,30.19,WNW,301,3.0,4.0,88,-99.99,,,-99.99,-0.100000,,2013-02-25 11:52:00,
2013-02-25 05:01:00,11.0,8.0,30.19,West,278,2.0,4.0,87,-99.99,,,-99.99,-0.200000,,2013-02-25 12:01:00,
2013-02-25 05:11:00,12.0,9.0,30.19,WNW,293,3.0,4.0,87,-99.99,,,-99.99,0.000000,,2013-02-25 12:11:00,
2013-02-25 05:21:00,12.0,9.0,30.19,NW,317,2.0,3.0,87,-99.99,,,-99.99,0.000000,,2013-02-25 12:21:00,
2013-02-25 05:32:00,11.0,8.0,30.19,NNW,330,2.0,2.0,86,-99.99,,,-99.99,-0.200000,,2013-02-25 12:32:00,
2013-02-25 05:41:00,11.0,7.0,30.18,North,353,1.0,2.0,86,-99.99,,,-99.99,-0.100000,,2013-02-25 12:41:00,
2013-02-25 05:52:00,9.0,6.0,30.18,North,1,2.0,2.0,86,-99.99,,,-99.99,-0.100000,,2013-02-25 12:52:00,
2013-02-25 06:01:00,10.0,7.0,30.18,NNE,13,2.0,3.0,86,-99.99,,,-99.99,-0.100000,,2013-02-25 13:01:00,
2013-02-25 06:11:00,10.0,7.0,30.18,WNW,285,1.0,2.0,87,-99.99,,,-99.99,0.000000,,2013-02-25 13:11:00,
2013-02-25 06:21:00,10.0,7.0,30.18,NE,34,2.0,3.0,87,-99.99,,,-99.99,-0.100000,,2013-02-25 13:21:00,
2013-02-25 06:31:00,9.0,6.0,30.17,North,9,3.0,3.0,86,-99.99,,,-99.99,-0.200000,,2013-02-25 13:31:00,
2013-02-25 06:41:00,9.0,6.0,30.17,SW,229,0.0,2.0,85,-99.99,,,-99.99,-0.100000,,2013-02-25 13:41:00,
2013-02-25 06:51:00,10.0,7.0,30.17,SW,236,2.0,3.0,86,-99.99,,,-99.99,-0.100000,,2013-02-25 13:51:00,
2013-02-25 07:02:00,10.0,7.0,30.17,SSW,203,4.0,6.0,87,-99.99,,,-99.99,0.000000,,2013-02-25 14:02:00,
2013-02-25 07:11:00,13.0,10.0,30.16,SSE,161,7.0,10.0,89,-99.99,,,-99.99,0.500000,,2013-02-25 14:11:00,
2013-02-25 07:21:00,16.0,13.0,30.16,SSE,166,7.0,10.0,88,-99.99,,,-99.99,5.800000,,2013-02-25 14:21:00,
2013-02-25 07:31:00,17.0,11.0,30.16,South,171,9.0,12.0,78,-99.99,,,-99.99,6.200000,,2013-02-25 14:31:00,
2013-02-25 07:41:00,17.0,10.0,30.16,South,175,8.0,13.0,71,-99.99,,,-99.99,18.000000,,2013-02-25 14:41:00,
2013-02-25 07:52:00,17.0,10.0,30.15,SSE,166,5.0,7.0,72,-99.99,,,-99.99,40.099998,,2013-02-25 14:52:00,
2013-02-25 08:02:00,18.0,10.0,30.15,ESE,122,6.0,12.0,72,-99.99,,,-99.99,74.599998,,2013-02-25 15:02:00,
2013-02-25 08:11:00,17.0,10.0,30.15,SE,134,6.0,11.0,73,-99.99,,,-99.99,85.000000,,2013-02-25 15:11:00,
2013-02-25 08:21:00,18.0,10.0,30.15,SE,138,4.0,7.0,71,-99.99,,,-99.99,93.699997,,2013-02-25 15:21:00,
2013-02-25 08:32:00,18.0,10.0,30.15,SSE,150,4.0,7.0,69,-99.99,,,-99.99,154.500000,,2013-02-25 15:32:00,
2013-02-25 08:41:00,19.0,10.0,30.15,SSE,168,4.0,7.0,69,-99.99,,,-99.99,197.899994,,2013-02-25 15:41:00,
2013-02-25 08:51:00,19.0,11.0,30.15,SE,134,4.0,7.0,68,-99.99,,,-99.99,209.300003,,2013-02-25 15:51:00,
2013-02-25 09:01:00,20.0,11.0,30.15,SE,139,6.0,9.0,68,-99.99,,,-99.99,230.399994,,2013-02-25 16:01:00,
2013-02-25 09:11:00,20.0,11.0,30.14,SSE,153,9.0,12.0,67,-99.99,,,-99.99,283.100006,,2013-02-25 16:11:00,
2013-02-25 09:21:00,20.0,11.0,30.14,SSE,162,8.0,12.0,66,-99.99,,,-99.99,288.799988,,2013-02-25 16:21:00,
2013-02-25 09:31:00,21.0,11.0,30.13,SSE,161,9.0,15.0,66,-99.99,,,-99.99,308.500000,,2013-02-25 16:31:00,
2013-02-25 09:41:00,21.0,12.0,30.13,SSW,202,9.0,13.0,65,-99.99,,,-99.99,334.899994,,2013-02-25 16:41:00,
2013-02-25 09:51:00,22.0,12.0,30.13,SSW,199,8.0,13.0,64,-99.99,,,-99.99,401.600006,,2013-02-25 16:51:00,
2013-02-25 10:01:00,22.0,12.0,30.12,SSW,193,8.0,13.0,64,-99.99,,,-99.99,450.799988,,2013-02-25 17:01:00,
2013-02-25 10:11:00,23.0,12.0,30.12,SSW,194,12.0,18.0,63,-99.99,,,-99.99,379.700012,,2013-02-25 17:11:00,
2013-02-25 10:21:00,23.0,12.0,30.12,South,184,14.0,19.0,61,-99.99,,,-99.99,422.399994,,2013-02-25 17:21:00,
2013-02-25 10:31:00,24.0,13.0,30.11,South,186,12.0,16.0,61,-99.99,,,-99.99,559.299988,,2013-02-25 17:31:00,
2013-02-25 10:41:00,25.0,13.0,30.11,South,187,12.0,17.0,61,-99.99,,,-99.99,568.400024,,2013-02-25 17:41:00,
2013-02-25 10:51:00,25.0,14.0,30.10,South,183,11.0,20.0,60,-99.99,,,-99.99,575.900024,,2013-02-25 17:51:00,
2013-02-25 11:01:00,26.0,14.0,30.10,South,179,11.0,16.0,59,-99.99,,,-99.99,677.200012,,2013-02-25 18:01:00,
2013-02-25 11:11:00,27.0,14.0,30.10,South,172,17.0,27.0,58,-99.99,,,-99.99,516.799988,,2013-02-25 18:11:00,
2013-02-25 11:21:00,27.0,15.0,30.09,South,171,14.0,23.0,60,-99.99,,,-99.99,404.100006,,2013-02-25 18:21:00,
2013-02-25 11:32:00,27.0,15.0,30.08,SSE,162,16.0,24.0,60,-99.99,,,-99.99,392.700012,,2013-02-25 18:32:00,
2013-02-25 12:01:00,27.0,15.0,30.07,SSE,164,16.0,23.0,60,-99.99,,,-99.99,538.200012,,2013-02-25 19:01:00,
2013-02-25 12:11:00,27.0,15.0,30.06,SSE,161,19.0,26.0,60,-99.99,,,-99.99,584.500000,,2013-02-25 19:11:00,
2013-02-25 12:21:00,27.0,15.0,30.07,South,171,17.0,24.0,59,-99.99,,,-99.99,558.099976,,2013-02-25 19:21:00,
2013-02-25 12:31:00,27.0,15.0,30.06,SSE,165,15.0,22.0,59,-99.99,,,-99.99,426.000000,,2013-02-25 19:31:00,
2013-02-25 12:41:00,28.0,15.0,30.06,South,171,15.0,22.0,58,-99.99,,,-99.99,465.399994,,2013-02-25 19:41:00,
2013-02-25 12:52:00,28.0,15.0,30.05,South,171,12.0,16.0,57,-99.99,,,-99.99,472.100006,,2013-02-25 19:52:00,
2013-02-25 13:01:00,29.0,16.0,30.05,South,173,12.0,17.0,57,-99.99,,,-99.99,370.899994,,2013-02-25 20:01:00,
2013-02-25 13:11:00,28.0,15.0,30.04,SSE,167,14.0,19.0,59,-99.99,,,-99.99,319.000000,,2013-02-25 20:11:00,
2013-02-25 13:21:00,27.0,15.0,30.04,South,176,13.0,19.0,59,-99.99,,,-99.99,339.000000,,2013-02-25 20:21:00,
2013-02-25 13:31:00,28.0,15.0,30.03,South,172,13.0,21.0,59,-99.99,,,-99.99,402.700012,,2013-02-25 20:31:00,
2013-02-25 13:41:00,28.0,15.0,30.03,SSE,166,13.0,19.0,59,-99.99,,,-99.99,364.200012,,2013-02-25 20:41:00,
2013-02-25 13:52:00,28.0,15.0,30.02,South,169,14.0,22.0,58,-99.99,,,-99.99,332.100006,,2013-02-25 20:52:00,
2013-02-25 14:01:00,28.0,15.0,30.01,SSE,166,15.0,22.0,59,-99.99,,,-99.99,355.700012,,2013-02-25 21:01:00,
2013-02-25 14:11:00,28.0,16.0,30.00,SSE,163,15.0,21.0,60,-99.99,,,-99.99,338.799988,,2013-02-25 21:11:00,
2013-02-25 14:21:00,28.0,16.0,30.00,SSE,162,17.0,24.0,59,-99.99,,,-99.99,330.700012,,2013-02-25 21:21:00,
2013-02-25 14:31:00,28.0,16.0,29.99,SSE,166,15.0,22.0,59,-99.99,,,-99.99,344.799988,,2013-02-25 21:31:00,
2013-02-25 14:41:00,28.0,16.0,29.99,SSE,165,17.0,25.0,59,-99.99,,,-99.99,361.399994,,2013-02-25 21:41:00,
2013-02-25 14:51:00,28.0,16.0,29.99,SSE,168,16.0,22.0,59,-99.99,,,-99.99,327.200012,,2013-02-25 21:51:00,
2013-02-25 15:01:00,29.0,16.0,29.99,South,169,14.0,21.0,59,-99.99,,,-99.99,266.299988,,2013-02-25 22:01:00,
2013-02-25 15:11:00,29.0,16.0,29.99,South,169,14.0,23.0,58,-99.99,,,-99.99,278.000000,,2013-02-25 22:11:00,
2013-02-25 15:21:00,29.0,16.0,29.99,SSE,165,15.0,24.0,58,-99.99,,,-99.99,277.100006,,2013-02-25 22:21:00,
2013-02-25 15:31:00,28.0,16.0,29.99,SSE,164,16.0,25.0,58,-99.99,,,-99.99,257.100006,,2013-02-25 22:31:00,
2013-02-25 15:41:00,29.0,16.0,29.99,SSE,167,15.0,20.0,58,-99.99,,,-99.99,536.299988,,2013-02-25 22:41:00,
2013-02-25 15:51:00,29.0,16.0,29.99,SSE,162,15.0,23.0,57,-99.99,,,-99.99,418.100006,,2013-02-25 22:51:00,
2013-02-25 16:01:00,30.0,17.0,29.99,SSE,162,14.0,18.0,58,-99.99,,,-99.99,360.500000,,2013-02-25 23:01:00,
2013-02-25 16:11:00,30.0,17.0,29.99,SSE,166,13.0,18.0,58,-99.99,,,-99.99,269.899994,,2013-02-25 23:11:00,
2013-02-25 16:21:00,30.0,17.0,29.99,South,170,13.0,18.0,57,-99.99,,,-99.99,271.799988,,2013-02-25 23:21:00,
2013-02-25 16:31:00,30.0,17.0,29.98,SSE,165,15.0,19.0,58,-99.99,,,-99.99,177.699997,,2013-02-25 23:31:00,
2013-02-25 16:41:00,30.0,16.0,29.98,SSE,162,13.0,17.0,57,-99.99,,,-99.99,138.500000,,2013-02-25 23:41:00,
2013-02-25 16:51:00,29.0,16.0,29.98,SSE,165,15.0,21.0,57,-99.99,,,-99.99,128.399994,,2013-02-25 23:51:00,
2013-02-25 17:01:00,28.0,16.0,29.98,SSE,166,14.0,22.0,59,-99.99,,,-99.99,78.099998,,2013-02-26 00:01:00,
2013-02-25 17:11:00,28.0,16.0,29.98,SSE,166,17.0,26.0,60,-99.99,,,-99.99,99.000000,,2013-02-26 00:11:00,
2013-02-25 17:21:00,28.0,17.0,29.98,South,177,12.0,20.0,62,-99.99,,,-99.99,135.800003,,2013-02-26 00:21:00,
2013-02-25 17:32:00,28.0,17.0,29.97,South,171,14.0,21.0,63,-99.99,,,-99.99,97.599998,,2013-02-26 00:32:00,
2013-02-25 17:41:00,28.0,18.0,29.97,South,184,12.0,16.0,66,-99.99,,,-99.99,45.000000,,2013-02-26 00:41:00,
2013-02-25 17:51:00,28.0,18.0,29.97,South,184,15.0,19.0,65,-99.99,,,-99.99,57.000000,,2013-02-26 00:51:00,
2013-02-25 18:01:00,27.0,19.0,29.98,South,176,10.0,15.0,70,-99.99,,,-99.99,22.299999,,2013-02-26 01:01:00,
2013-02-25 18:11:00,27.0,21.0,29.97,South,179,8.0,12.0,77,-99.99,,,-99.99,12.800000,,2013-02-26 01:11:00,
2013-02-25 18:21:00,27.0,23.0,29.97,South,178,6.0,9.0,84,-99.99,,,-99.99,9.100000,,2013-02-26 01:21:00,
2013-02-25 18:31:00,27.0,23.0,29.97,SSE,159,7.0,12.0,84,-99.99,,,-99.99,0.800000,,2013-02-26 01:31:00,
2013-02-25 18:41:00,26.0,21.0,29.98,South,183,10.0,13.0,82,-99.99,,,-99.99,0.200000,,2013-02-26 01:41:00,
2013-02-25 18:51:00,26.0,21.0,29.98,South,188,8.0,11.0,82,-99.99,,,-99.99,0.000000,,2013-02-26 01:51:00,
2013-02-25 19:01:00,25.0,21.0,29.98,SSW,195,8.0,13.0,84,-99.99,,,-99.99,0.000000,,2013-02-26 02:01:00,
2013-02-25 19:11:00,26.0,22.0,29.98,SW,218,8.0,12.0,84,-99.99,,,-99.99,-0.100000,,2013-02-26 02:11:00,
2013-02-25 19:21:00,26.0,23.0,29.98,SSW,192,10.0,13.0,85,-99.99,,,-99.99,0.000000,,2013-02-26 02:21:00,
2013-02-25 19:31:00,26.0,23.0,29.98,SSW,201,10.0,14.0,87,-99.99,,,-99.99,-0.100000,,2013-02-26 02:31:00,
2013-02-25 19:41:00,27.0,23.0,29.98,SSW,202,10.0,21.0,88,-99.99,,,-99.99,-0.200000,,2013-02-26 02:41:00,
2013-02-25 19:51:00,27.0,23.0,29.99,SW,217,10.0,17.0,86,-99.99,,,-99.99,-0.100000,,2013-02-26 02:51:00,
2013-02-25 20:01:00,27.0,23.0,29.99,SW,215,11.0,15.0,85,-99.99,,,-99.99,0.000000,,2013-02-26 03:01:00,
2013-02-25 20:11:00,27.0,23.0,29.98,SSW,210,11.0,17.0,85,-99.99,,,-99.99,0.000000,,2013-02-26 03:11:00,
2013-02-25 20:21:00,27.0,23.0,29.99,SW,222,9.0,13.0,84,-99.99,,,-99.99,0.000000,,2013-02-26 03:21:00,
2013-02-25 20:31:00,27.0,23.0,29.99,SW,226,9.0,14.0,84,-99.99,,,-99.99,-0.100000,,2013-02-26 03:31:00,
2013-02-25 20:41:00,27.0,23.0,29.99,SW,227,9.0,11.0,83,-99.99,,,-99.99,0.000000,,2013-02-26 03:41:00,
2013-02-25 20:51:00,27.0,22.0,29.99,SW,235,10.0,16.0,80,-99.99,,,-99.99,0.000000,,2013-02-26 03:51:00,
2013-02-25 21:01:00,27.0,22.0,29.99,SW,232,12.0,17.0,81,-99.99,,,-99.99,-0.200000,,2013-02-26 04:01:00,
2013-02-25 21:11:00,26.0,22.0,29.99,SW,236,10.0,15.0,83,-99.99,,,-99.99,0.000000,,2013-02-26 04:11:00,
2013-02-25 21:21:00,26.0,22.0,29.99,SW,235,9.0,17.0,85,-99.99,,,-99.99,-0.200000,,2013-02-26 04:21:00,
2013-02-25 21:31:00,26.0,22.0,29.99,SW,234,9.0,14.0,86,-99.99,,,-99.99,0.000000,,2013-02-26 04:31:00,
2013-02-25 21:42:00,26.0,22.0,30.00,SW,233,10.0,16.0,87,-99.99,,,-99.99,-0.100000,,2013-02-26 04:42:00,
2013-02-25 21:51:00,25.0,23.0,30.00,SW,226,10.0,14.0,89,-99.99,,,-99.99,-0.100000,,2013-02-26 04:51:00,
2013-02-25 22:01:00,25.0,23.0,29.99,SW,223,10.0,16.0,90,-99.99,,,-99.99,0.000000,,2013-02-26 05:01:00,
2013-02-25 22:11:00,25.0,23.0,30.00,SW,220,10.0,15.0,90,-99.99,,,-99.99,-0.100000,,2013-02-26 05:11:00,
2013-02-25 22:21:00,25.0,23.0,30.00,SW,226,10.0,13.0,90,-99.99,,,-99.99,-0.100000,,2013-02-26 05:21:00,
2013-02-25 22:31:00,25.0,23.0,30.00,SW,221,9.0,14.0,90,-99.99,,,-99.99,0.000000,,2013-02-26 05:31:00,
2013-02-25 22:42:00,25.0,23.0,30.00,SW,226,9.0,15.0,90,-99.99,,,-99.99,0.000000,,2013-02-26 05:42:00,
2013-02-25 22:52:00,25.0,23.0,30.00,SW,229,8.0,11.0,90,-99.99,,,-99.99,-0.100000,,2013-02-26 05:52:00,
2013-02-25 23:01:00,25.0,23.0,30.00,SW,230,8.0,11.0,90,-99.99,,,-99.99,0.000000,,2013-02-26 06:01:00,
2013-02-25 23:11:00,25.0,23.0,30.00,SW,232,9.0,12.0,90,-99.99,,,-99.99,-0.100000,,2013-02-26 06:11:00,
2013-02-25 23:21:00,25.0,23.0,30.00,WSW,243,8.0,12.0,90,-99.99,,,-99.99,-0.100000,,2013-02-26 06:21:00,
2013-02-25 23:31:00,25.0,23.0,30.01,WNW,286,6.0,8.0,90,-99.99,,,-99.99,-0.100000,,2013-02-26 06:31:00,
2013-02-25 23:41:00,24.0,21.0,30.01,NW,313,4.0,6.0,89,-99.99,,,-99.99,0.000000,,2013-02-26 06:41:00,
2013-02-25 23:51:00,24.0,21.0,30.01,WNW,294,3.0,4.0,90,-99.99,,,-99.99,0.000000,,2013-02-26 06:51:00,